Oxford, MS

9:38 AM CST on December 06, 2016 (GMT -0600)
University-Oxford

Weather History for KUOX - December, 2013

Change the Weather History Date:

Saturday, December 7, 2013

  Actual Average Record
Temperature  
Mean Temperature 26 °F -  
Max Temperature 28 °F 54 °F 76 °F (1939)
Min Temperature 24 °F 32 °F 11 °F (1984)
Degree Days  
Heating Degree Days 39    
Moisture  
Dew Point 24 °F    
Average Humidity 90    
Maximum Humidity 93    
Minimum Humidity 86    
Precipitation  
Precipitation 0.00 in - - ()
Sea Level Pressure  
Sea Level Pressure 30.43 in    
Wind  
Wind Speed 3 mph (NE)    
Max Wind Speed 12 mph    
Max Gust Speed 17 mph    
Visibility 8 miles    
Events Rain    
Averages and records for this station are not official NWS values.
T = Trace of Precipitation, MM = Missing Value Source: NWS Daily Summary

Daily Weather History Graph

Daily Weather History Graph

Search for Another Location

Airport or City:

Trip Planner

Search our weather history database for the weather conditions in past years. The results will help you decide how hot, cold, wet, or windy it might be!

Date:

Astronomy

Dec. 07, 2013 Rise Set
Actual Time 6:51 AM CST 4:47 PM CST
Civil Twilight 6:23 AM CST 5:15 PM CST
Nautical Twilight 5:52 AM CST 5:46 PM CST
Astronomical Twilight 5:22 AM CST 6:17 PM CST
Moon 10:45 AM CST (12/7) 10:19 PM CST (12/7)
Length of Visible Light 10h 51m
Length of Day
9h 56m
Waxing Crescent, 29% of the Moon is Illuminated
Dec 7
Waxing Crescent
Dec 9
First Quarter
Dec 17
Full
Dec 25
Last Quarter
Jan 1
New

Hourly Weather History & Observations

Time (CST) Temp. Windchill Dew Point Humidity Pressure Visibility Wind Dir Wind Speed Gust Speed Precip Events Conditions
12:15 AM 26.6 °F - 24.8 °F 93% 30.41 in 10.0 mi Calm Calm - N/A   Overcast
12:35 AM 26.6 °F - 24.8 °F 93% 30.41 in 8.0 mi Calm Calm - N/A   Overcast
12:55 AM 26.6 °F - 24.8 °F 93% 30.40 in 10.0 mi Calm Calm - N/A   Overcast
1:15 AM 26.6 °F - 23.0 °F 86% 30.41 in 10.0 mi Calm Calm - N/A   Overcast
1:35 AM 26.6 °F - 23.0 °F 86% 30.41 in 9.0 mi Calm Calm - N/A   Overcast
1:55 AM 26.6 °F - 23.0 °F 86% 30.41 in 9.0 mi Calm Calm - N/A   Overcast
2:15 AM 26.6 °F - 24.8 °F 93% 30.41 in 8.0 mi Calm Calm - N/A   Overcast
2:35 AM 26.6 °F - 24.8 °F 93% 30.41 in 8.0 mi Calm Calm - N/A   Overcast
2:55 AM 26.6 °F - 24.8 °F 93% 30.42 in 8.0 mi Calm Calm - N/A   Overcast
3:15 AM 26.6 °F - 24.8 °F 93% 30.42 in 9.0 mi Calm Calm - N/A   Overcast
3:35 AM 26.6 °F - 24.8 °F 93% 30.42 in 8.0 mi Calm Calm - N/A   Overcast
3:55 AM 26.6 °F - 24.8 °F 93% 30.43 in 8.0 mi Calm Calm - N/A   Overcast
4:15 AM 26.6 °F - 24.8 °F 93% 30.43 in 7.0 mi Calm Calm - N/A   Overcast
4:35 AM 26.6 °F - 23.0 °F 86% 30.43 in 8.0 mi Calm Calm - N/A   Overcast
4:55 AM 26.6 °F - 23.0 °F 86% 30.44 in 8.0 mi Calm Calm - N/A   Overcast
5:15 AM 24.8 °F - 23.0 °F 93% 30.45 in 8.0 mi Calm Calm - N/A   Overcast
5:35 AM 24.8 °F - 23.0 °F 93% 30.45 in 8.0 mi Calm Calm - N/A   Overcast
5:55 AM 24.8 °F - 23.0 °F 93% 30.47 in 8.0 mi Calm Calm - N/A   Overcast
6:15 AM 24.8 °F - 23.0 °F 93% 30.47 in 7.0 mi Calm Calm - N/A   Overcast
6:35 AM 24.8 °F - 23.0 °F 93% 30.47 in 8.0 mi Calm Calm - N/A   Overcast
6:55 AM 24.8 °F - 23.0 °F 93% 30.48 in 8.0 mi Calm Calm - N/A   Overcast
7:15 AM 24.8 °F - 23.0 °F 93% 30.49 in 5.0 mi Calm Calm - N/A   Overcast
7:35 AM 24.8 °F - 23.0 °F 93% 30.49 in 6.0 mi Calm Calm - N/A   Overcast
7:55 AM 24.8 °F - 23.0 °F 93% 30.49 in 6.0 mi Calm Calm - N/A   Overcast
8:15 AM 24.8 °F - 23.0 °F 93% 30.50 in 7.0 mi Calm Calm - N/A   Overcast
8:35 AM 24.8 °F - 23.0 °F 93% 30.51 in 7.0 mi Calm Calm - N/A   Overcast
8:55 AM 24.8 °F - 23.0 °F 93% 30.51 in 7.0 mi Calm Calm - N/A   Overcast
9:15 AM 24.8 °F - 23.0 °F 93% 30.52 in 7.0 mi Calm Calm - N/A   Overcast
9:35 AM 24.8 °F - 23.0 °F 93% 30.52 in 7.0 mi Calm Calm - N/A   Overcast
9:55 AM 24.8 °F - 23.0 °F 93% 30.53 in 7.0 mi Calm Calm - N/A   Overcast
10:15 AM 24.8 °F - 23.0 °F 93% 30.53 in 7.0 mi Calm Calm - N/A   Overcast
10:35 AM 24.8 °F 16.9 °F 23.0 °F 93% 30.53 in 7.0 mi NNE 6.9 mph - N/A   Overcast
10:55 AM 24.8 °F 16.9 °F 23.0 °F 93% 30.52 in 7.0 mi NE 6.9 mph - N/A   Overcast
11:15 AM 24.8 °F 14.6 °F 23.0 °F 93% 30.51 in 7.0 mi NNE 10.4 mph - N/A   Overcast
11:35 AM 26.6 °F 16.8 °F 23.0 °F 86% 30.50 in 7.0 mi NNE 10.4 mph - N/A   Overcast
11:55 AM 26.6 °F 17.5 °F 23.0 °F 86% 30.49 in 8.0 mi North 9.2 mph - N/A   Overcast
12:15 PM 26.6 °F 18.2 °F 23.0 °F 86% 30.47 in 8.0 mi NE 8.1 mph - N/A   Overcast
12:35 PM 26.6 °F 16.8 °F 23.0 °F 86% 30.47 in 8.0 mi NNE 10.4 mph - N/A   Overcast
12:55 PM 26.6 °F 17.5 °F 23.0 °F 86% 30.45 in 8.0 mi North 9.2 mph - N/A   Overcast
1:15 PM 26.6 °F 16.8 °F 23.0 °F 86% 30.45 in 9.0 mi NNE 10.4 mph - N/A   Overcast
1:35 PM 26.6 °F 20.0 °F 23.0 °F 86% 30.44 in 7.0 mi NNE 5.8 mph - N/A   Overcast
1:55 PM 26.6 °F 17.5 °F 23.0 °F 86% 30.44 in 8.0 mi NNE 9.2 mph - N/A   Overcast
2:15 PM 26.6 °F 17.5 °F 23.0 °F 86% 30.44 in 8.0 mi NNE 9.2 mph - N/A   Overcast
2:35 PM 26.6 °F 20.0 °F 23.0 °F 86% 30.45 in 8.0 mi NE 5.8 mph - N/A   Overcast
2:55 PM 26.6 °F 17.5 °F 23.0 °F 86% 30.44 in 8.0 mi NNE 9.2 mph - N/A   Overcast
3:15 PM 26.6 °F 17.5 °F 23.0 °F 86% 30.43 in 8.0 mi NE 9.2 mph - N/A   Overcast
3:35 PM 26.6 °F 16.2 °F 23.0 °F 86% 30.42 in 9.0 mi NNE 11.5 mph - N/A   Overcast
3:55 PM 26.6 °F 17.5 °F 23.0 °F 86% 30.42 in 9.0 mi NE 9.2 mph 16.1 mph N/A   Overcast
4:15 PM 26.6 °F 16.2 °F 24.8 °F 93% 30.41 in 9.0 mi NE 11.5 mph - N/A   Overcast
4:35 PM 26.6 °F 16.8 °F 24.8 °F 93% 30.39 in 8.0 mi NE 10.4 mph 17.3 mph N/A   Overcast
4:55 PM 26.6 °F 16.8 °F 24.8 °F 93% 30.40 in 9.0 mi NE 10.4 mph 16.1 mph N/A   Overcast
5:15 PM 26.6 °F 20.0 °F 24.8 °F 93% 30.42 in 10.0 mi NNE 5.8 mph - N/A   Overcast
5:35 PM 26.6 °F 19.1 °F 24.8 °F 93% 30.41 in 10.0 mi ENE 6.9 mph - N/A   Overcast
5:55 PM 26.6 °F 17.5 °F 24.8 °F 93% 30.40 in 10.0 mi NE 9.2 mph - N/A   Overcast
6:15 PM 26.6 °F 17.5 °F 24.8 °F 93% 30.39 in 10.0 mi ENE 9.2 mph - N/A   Overcast
6:35 PM 26.6 °F 19.1 °F 24.8 °F 93% 30.39 in 10.0 mi NE 6.9 mph - N/A   Overcast
6:55 PM 28.4 °F 20.4 °F 24.8 °F 86% 30.38 in 10.0 mi ENE 8.1 mph - N/A   Overcast
7:15 PM 28.4 °F 21.2 °F 24.8 °F 86% 30.38 in 8.0 mi ENE 6.9 mph - N/A Rain Light Freezing Rain
7:35 PM 28.4 °F 19.1 °F 24.8 °F 86% 30.37 in 10.0 mi ENE 10.4 mph - N/A Rain Light Freezing Rain
7:55 PM 28.4 °F 19.7 °F 24.8 °F 86% 30.37 in 10.0 mi East 9.2 mph - N/A   Overcast
8:15 PM 28.4 °F 20.4 °F 24.8 °F 86% 30.36 in 10.0 mi ENE 8.1 mph - N/A   Overcast
8:35 PM 28.4 °F 22.2 °F 24.8 °F 86% 30.35 in 10.0 mi East 5.8 mph - N/A   Overcast
8:55 PM 28.4 °F 21.2 °F 24.8 °F 86% 30.36 in 9.0 mi ENE 6.9 mph - N/A   Overcast
9:15 PM 28.4 °F 21.2 °F 24.8 °F 86% 30.36 in 8.0 mi ENE 6.9 mph - N/A   Overcast
9:35 PM 28.4 °F 22.2 °F 24.8 °F 86% 30.37 in 8.0 mi ENE 5.8 mph - N/A   Overcast
9:55 PM 28.4 °F 22.2 °F 24.8 °F 86% 30.36 in 7.0 mi ENE 5.8 mph - N/A   Overcast
10:15 PM 28.4 °F 22.2 °F 24.8 °F 86% 30.33 in 7.0 mi East 5.8 mph - N/A   Overcast
10:35 PM 28.4 °F 20.4 °F 26.6 °F 93% 30.31 in 7.0 mi ENE 8.1 mph - N/A   Overcast
10:55 PM 28.4 °F 22.2 °F 26.6 °F 93% 30.30 in 6.0 mi East 5.8 mph - N/A   Overcast
11:15 PM 28.4 °F 22.2 °F 26.6 °F 93% 30.31 in 6.0 mi East 5.8 mph - N/A   Overcast
11:35 PM 28.4 °F 24.6 °F 26.6 °F 93% 30.32 in 6.0 mi North 3.5 mph - N/A   Overcast
11:55 PM 28.4 °F 23.3 °F 26.6 °F 93% 30.30 in 6.0 mi NE 4.6 mph - N/A   Overcast